Hourly Weather Rusinowo

Today, 23 April, Friday

Time Temperature Precipitation Wind Pressure Humidity
00:00 +1°C° 0 mm 5 mps 754 mmHg 66%
01:00 0°C° 0 mm 5 mps 754 mmHg 69%
02:00 0°C° 0 mm 5 mps 754 mmHg 72%
03:00 -1°C° 0 mm 4 mps 754 mmHg 75%
04:00 -1°C° 0 mm 4 mps 754 mmHg 78%
05:00 0°C° 0 mm 4 mps 755 mmHg 74%
06:00 +1°C° 0 mm 5 mps 755 mmHg 69%
07:00 +2°C° 0 mm 6 mps 755 mmHg 65%
08:00 +4°C° 0.1 mm 6 mps 755 mmHg 59%
09:00 +5°C° 0.1 mm 7 mps 755 mmHg 52%
10:00 +6°C° 0.1 mm 8 mps 756 mmHg 46%
11:00 +7°C° 0 mm 8 mps 756 mmHg 41%
12:00 +7°C° 0 mm 8 mps 756 mmHg 35%
13:00 +9°C° 0 mm 8 mps 756 mmHg 30%
14:00 +8°C° 0 mm 7 mps 756 mmHg 33%
15:00 +8°C° 0 mm 7 mps 756 mmHg 36%
16:00 +8°C° 0 mm 6 mps 756 mmHg 38%
17:00 +6°C° 0 mm 5 mps 757 mmHg 42%
18:00 +5°C° 0 mm 3 mps 757 mmHg 46%
19:00 +5°C° 0 mm 2 mps 757 mmHg 50%
20:00 +4°C° 0 mm 2 mps 757 mmHg 52%
21:00 +3°C° 0 mm 2 mps 758 mmHg 54%
22:00 +3°C° 0 mm 1 mps 758 mmHg 55%
23:00 +3°C° 0 mm 1 mps 758 mmHg 56%

Tomorrow, 24 April, Saturday

Time Temperature Precipitation Wind Pressure Humidity
00:00 +2°C° 0 mm 2 mps 758 mmHg 57%
01:00 +1°C° 0 mm 2 mps 757 mmHg 58%
02:00 +1°C° 0 mm 2 mps 757 mmHg 63%
03:00 +1°C° 0 mm 2 mps 757 mmHg 67%
04:00 -1°C° 0 mm 3 mps 757 mmHg 72%
05:00 +1°C° 0 mm 3 mps 757 mmHg 69%
06:00 +2°C° 0 mm 3 mps 758 mmHg 66%
07:00 +3°C° 0 mm 3 mps 758 mmHg 63%
08:00 +5°C° 0 mm 3 mps 758 mmHg 53%
09:00 +7°C° 0 mm 3 mps 758 mmHg 43%
10:00 +8°C° 0 mm 4 mps 758 mmHg 33%
11:00 +8°C° 0 mm 4 mps 757 mmHg 33%
12:00 +10°C° 0 mm 4 mps 757 mmHg 33%
13:00 +10°C° 0 mm 4 mps 757 mmHg 33%
14:00 +9°C° 0 mm 5 mps 757 mmHg 37%
15:00 +8°C° 0 mm 5 mps 756 mmHg 42%
16:00 +8°C° 0 mm 6 mps 756 mmHg 46%
17:00 +6°C° 0.1 mm 5 mps 757 mmHg 57%
18:00 +4°C° 0.1 mm 4 mps 757 mmHg 67%
19:00 +2°C° 0.1 mm 3 mps 758 mmHg 78%
20:00 +1°C° 0 mm 3 mps 758 mmHg 77%
21:00 +2°C° 0 mm 2 mps 758 mmHg 76%
22:00 +2°C° 0 mm 1 mps 758 mmHg 75%
23:00 -1°C° 0 mm 2 mps 758 mmHg 75%

Day after tomorrow, 25 April, Sunday

Time Temperature Precipitation Wind Pressure Humidity
00:00 -1°C° 0 mm 2 mps 758 mmHg 75%
01:00 -1°C° 0 mm 2 mps 758 mmHg 74%
02:00 -2°C° 0 mm 2 mps 758 mmHg 74%
03:00 -2°C° 0 mm 2 mps 758 mmHg 73%
04:00 -2°C° 0 mm 2 mps 758 mmHg 73%
05:00 0°C° 0 mm 3 mps 758 mmHg 67%
06:00 +1°C° 0 mm 3 mps 758 mmHg 60%
07:00 +1°C° 0 mm 4 mps 758 mmHg 54%
08:00 +4°C° 0 mm 4 mps 758 mmHg 48%
09:00 +5°C° 0 mm 5 mps 757 mmHg 42%
10:00 +7°C° 0 mm 5 mps 757 mmHg 36%
11:00 +7°C° 0 mm 6 mps 757 mmHg 36%
12:00 +7°C° 0 mm 6 mps 757 mmHg 37%
13:00 +6°C° 0 mm 7 mps 757 mmHg 37%
14:00 +6°C° 0 mm 7 mps 757 mmHg 39%
15:00 +6°C° 0 mm 7 mps 757 mmHg 41%
16:00 +5°C° 0 mm 7 mps 757 mmHg 42%
17:00 +5°C° 0 mm 5 mps 757 mmHg 49%
18:00 +3°C° 0 mm 4 mps 757 mmHg 56%
19:00 +1°C° 0 mm 3 mps 757 mmHg 63%
20:00 +1°C° 0 mm 2 mps 757 mmHg 66%
21:00 +1°C° 0 mm 1 mps 757 mmHg 68%
22:00 +1°C° 0 mm 1 mps 757 mmHg 71%
23:00 +1°C° 0 mm 1 mps 757 mmHg 70%

26 April, Monday

Time Temperature Precipitation Wind Pressure Humidity
00:00 -2°C° 0 mm 2 mps 757 mmHg 69%
01:00 -2°C° 0 mm 2 mps 757 mmHg 68%
02:00 -2°C° 0 mm 2 mps 757 mmHg 71%
03:00 -2°C° 0 mm 3 mps 756 mmHg 73%
04:00 -2°C° 0 mm 3 mps 756 mmHg 76%
05:00 -1°C° 0 mm 3 mps 756 mmHg 71%
06:00 +1°C° 0 mm 3 mps 756 mmHg 66%
07:00 +1°C° 0 mm 4 mps 756 mmHg 61%
08:00 +4°C° 0 mm 4 mps 755 mmHg 53%
09:00 +5°C° 0 mm 4 mps 755 mmHg 46%
10:00 +7°C° 0 mm 4 mps 755 mmHg 39%
11:00 +7°C° 0 mm 4 mps 755 mmHg 40%
12:00 +7°C° 0 mm 5 mps 754 mmHg 41%
13:00 +8°C° 0 mm 5 mps 754 mmHg 42%
14:00 +7°C° 0.1 mm 5 mps 754 mmHg 45%
15:00 +7°C° 0.1 mm 4 mps 754 mmHg 48%
16:00 +7°C° 0.1 mm 4 mps 753 mmHg 51%
17:00 +5°C° 0.1 mm 4 mps 753 mmHg 58%
18:00 +4°C° 0.1 mm 3 mps 753 mmHg 65%
19:00 +3°C° 0.1 mm 2 mps 753 mmHg 72%
20:00 +2°C° 0 mm 2 mps 753 mmHg 75%
21:00 +2°C° 0 mm 2 mps 754 mmHg 77%
22:00 +2°C° 0 mm 1 mps 754 mmHg 80%
23:00 +1°C° 0 mm 1 mps 754 mmHg 79%

27 April, Tuesday

Time Temperature Precipitation Wind Pressure Humidity
00:00 +1°C° 0 mm 1 mps 754 mmHg 79%
01:00 +1°C° 0 mm 1 mps 753 mmHg 78%
02:00 +1°C° 0 mm 1 mps 753 mmHg 77%
03:00 +1°C° 0 mm 1 mps 753 mmHg 76%
04:00 -1°C° 0 mm 2 mps 753 mmHg 75%
05:00 +1°C° 0 mm 2 mps 753 mmHg 69%
06:00 +3°C° 0 mm 2 mps 753 mmHg 62%
07:00 +5°C° 0 mm 2 mps 752 mmHg 56%
08:00 +6°C° 0 mm 2 mps 752 mmHg 51%
09:00 +7°C° 0 mm 2 mps 752 mmHg 46%
10:00 +9°C° 0 mm 2 mps 752 mmHg 41%
11:00 +9°C° 0 mm 2 mps 751 mmHg 40%
12:00 +10°C° 0 mm 2 mps 751 mmHg 40%
13:00 +10°C° 0 mm 3 mps 750 mmHg 40%
14:00 +10°C° 0 mm 3 mps 750 mmHg 41%
15:00 +10°C° 0 mm 3 mps 750 mmHg 43%
16:00 +10°C° 0 mm 3 mps 749 mmHg 44%
17:00 +9°C° 0 mm 3 mps 749 mmHg 50%
18:00 +8°C° 0 mm 3 mps 749 mmHg 56%
19:00 +7°C° 0 mm 3 mps 749 mmHg 62%
20:00 +5°C° 0 mm 3 mps 748 mmHg 62%
21:00 +5°C° 0 mm 3 mps 748 mmHg 63%
22:00 +5°C° 0 mm 4 mps 748 mmHg 63%
23:00 +4°C° 0 mm 4 mps 747 mmHg 63%

28 April, Wednesday

Time Temperature Precipitation Wind Pressure Humidity
00:00 +4°C° 0 mm 4 mps 747 mmHg 64%
01:00 +4°C° 0 mm 4 mps 747 mmHg 64%
02:00 +4°C° 0 mm 4 mps 746 mmHg 65%
03:00 +4°C° 0 mm 4 mps 746 mmHg 65%
04:00 +4°C° 0 mm 4 mps 745 mmHg 66%
05:00 +4°C° 0 mm 4 mps 745 mmHg 67%
06:00 +5°C° 0 mm 4 mps 745 mmHg 68%
07:00 +5°C° 0 mm 4 mps 745 mmHg 70%
08:00 +5°C° 0.2 mm 4 mps 745 mmHg 74%
09:00 +6°C° 0.2 mm 4 mps 745 mmHg 78%
10:00 +6°C° 0.2 mm 4 mps 745 mmHg 83%
11:00 +6°C° 0.1 mm 4 mps 745 mmHg 84%
12:00 +6°C° 0.1 mm 4 mps 745 mmHg 85%
13:00 +6°C° 0.1 mm 4 mps 745 mmHg 86%
14:00 +6°C° 0 mm 4 mps 744 mmHg 87%
15:00 +5°C° 0 mm 4 mps 744 mmHg 88%
16:00 +5°C° 0 mm 4 mps 744 mmHg 90%
17:00 +5°C° 0 mm 3 mps 744 mmHg 90%
18:00 +5°C° 0 mm 3 mps 744 mmHg 91%
19:00 +5°C° 0 mm 3 mps 744 mmHg 92%
20:00 +5°C° 0 mm 3 mps 744 mmHg 92%
21:00 +5°C° 0 mm 3 mps 744 mmHg 92%
22:00 +5°C° 0 mm 3 mps 744 mmHg 92%
23:00 +5°C° 0 mm 3 mps 744 mmHg 92%
Show more